Location: M?digepalle
(16.1753°N, 80.3496°E)
Time: 08:16:29
(UTC+00:00)

MOS 1 Rocket - Pass Details

Date: 29 October 2020
Orbit: 615 x 829 km, 97.4° (Epoch: 28 November)

Event Time Altitude Azimuth Distance (km) Brightness Sun altitude
Rises 13:11:53 0° 12° (NNE) 3,146 6.5 -15.4°
Reaches altitude 10° 13:14:07 10° 13° (NNE) 2,255 5.7 -16.0°
Maximum altitude 13:19:07 84° 101° (E) 782 3.4 -17.2°
Drops below altitude 10° 13:24:23 10° 190° (S) 2,373 6.3 -18.4°
Sets 13:26:46 0° 190° (S) 3,323 7.1 -19.0°
